CXO

Last updated on June 17, 2021, 2:14 a.m. UTC

1 25867U 99040B   21170.75349962  .00000526  00000-0  00000-0 0  9999
2 25867  55.0267 255.1398 8328676 226.5315 359.8441  0.37813693 10445
UTC
Height (km)
Latitude
Longitude
Inclination
Orbital Period
UTC large
Height (km)
Speed (km/s)
/
Latitude / Longitude
Inclination (degrees)
Orbital Period (minutes)
Azimuth
Elevation
Range (km)
Doppler Factor
iOS Compass Heading
iOS Angle

Next 30 passes for location: Hong Kong

Rise time Rise Azimuth (degrees) Set time Set Azimuth (degrees) Duration Max altitude (degrees)

No matching passes for this satellites